Aureole 2 Rocket - Orbit

View from above orbital plane
View from above orbital plane
View from above satellite
View from above satellite

Ground track
Ground track

The orbit data is extracted from the following two-line orbital elements,

1 07004U 73107B   13140.84459542  .00026059  00000-0  83721-3 0  3067
2 07004 073.9547 303.9322 0351241 185.1224 326.9615 14.88959201 11741
Epoch (UTC): 20 May 2013 20:16:13
Eccentricity: 0.0351241
inclination: 73.9547°
perigee height: 356 km
apogee height: 846 km
right ascension of ascending node: 303.9322°
argument of perigee: 185.1224°
revolutions per day: 14.88959201
mean anomaly at epoch: 326.9615°
orbit number at epoch: 1174

The dashed part of the orbit path shows where the satellite is in the earth's shadow,  

Developed and maintained by Chris Peat, Heavens-Above GmbH. Please read the updated FAQ before sending e-mail. Imprint. DLR